Time,TemperatureF,DewpointF,PressureIn,WindDirection,WindDirectionDegrees,WindSpeedMPH,WindSpeedGustMPH,Humidity,HourlyPrecipIn,Conditions,Clouds,dailyrainin,SoftwareType,DateUTC
2013-10-11 00:23:00,66.0,54.0,-100.00,SSE,158,5.0,-999.0,66,-99.99,,,-99.99,,2013-10-11 05:23:00,
2013-10-11 00:43:00,66.0,54.0,-100.00,SSE,158,5.0,-999.0,66,-99.99,,,-99.99,,2013-10-11 05:43:00,
2013-10-11 00:52:00,65.0,54.0,-100.00,SSE,158,5.0,-999.0,68,-99.99,,,-99.99,,2013-10-11 05:52:00,
2013-10-11 01:22:00,65.0,55.0,-100.00,South,180,5.0,-999.0,70,-99.99,,,-99.99,,2013-10-11 06:22:00,
2013-10-11 01:52:00,65.0,55.0,-100.00,SSW,203,4.0,-999.0,70,-99.99,,,-99.99,,2013-10-11 06:52:00,
2013-10-11 02:21:00,64.0,55.0,-100.00,South,180,4.0,-999.0,70,-99.99,,,-99.99,,2013-10-11 07:21:00,
2013-10-11 02:42:00,64.0,55.0,-100.00,South,180,4.0,-999.0,71,-99.99,,,-99.99,,2013-10-11 07:42:00,
2013-10-11 02:52:00,64.0,55.0,-100.00,South,180,4.0,-999.0,70,-99.99,,,-99.99,,2013-10-11 07:52:00,
2013-10-11 03:21:00,65.0,55.0,-100.00,South,180,4.0,-999.0,69,-99.99,,,-99.99,,2013-10-11 08:21:00,
2013-10-11 03:52:00,65.0,55.0,-100.00,South,180,4.0,-999.0,69,-99.99,,,-99.99,,2013-10-11 08:52:00,
2013-10-11 04:22:00,65.0,55.0,-100.00,South,180,5.0,-999.0,69,-99.99,,,-99.99,,2013-10-11 09:22:00,
2013-10-11 04:53:00,64.0,55.0,-100.00,South,180,5.0,-999.0,71,-99.99,,,-99.99,,2013-10-11 09:53:00,
2013-10-11 05:23:00,64.0,55.0,-100.00,South,180,5.0,-999.0,71,-99.99,,,-99.99,,2013-10-11 10:23:00,
2013-10-11 05:53:00,64.0,55.0,-100.00,South,180,6.0,-999.0,71,-99.99,,,-99.99,,2013-10-11 10:53:00,
2013-10-11 06:22:00,63.0,55.0,-100.00,South,180,6.0,-999.0,75,-99.99,,,-99.99,,2013-10-11 11:22:00,
2013-10-11 06:52:00,63.0,55.0,-100.00,South,180,5.0,-999.0,76,-99.99,,,-99.99,,2013-10-11 11:52:00,
2013-10-11 07:22:00,63.0,56.0,-100.00,South,180,5.0,-999.0,79,-99.99,,,-99.99,,2013-10-11 12:22:00,
2013-10-11 07:52:00,63.0,57.0,-100.00,South,180,7.0,-999.0,80,-99.99,,,-99.99,,2013-10-11 12:52:00,
2013-10-11 08:21:00,62.0,57.0,-100.00,South,180,6.0,-999.0,82,-99.99,,,-99.99,,2013-10-11 13:21:00,
2013-10-11 08:53:00,63.0,58.0,-100.00,South,180,5.0,-999.0,82,-99.99,,,-99.99,,2013-10-11 13:53:00,
2013-10-11 09:22:00,64.0,58.0,-100.00,South,180,5.0,-999.0,81,-99.99,,,-99.99,,2013-10-11 14:22:00,
2013-10-11 09:52:00,64.0,58.0,-100.00,South,180,6.0,-999.0,81,-99.99,,,-99.99,,2013-10-11 14:52:00,
2013-10-11 10:22:00,67.0,59.0,-100.00,SSW,203,7.0,-999.0,75,-99.99,,,-99.99,,2013-10-11 15:22:00,
2013-10-11 10:53:00,69.0,59.0,-100.00,SW,225,7.0,-999.0,70,-99.99,,,-99.99,,2013-10-11 15:53:00,
2013-10-11 11:22:00,71.0,58.0,-100.00,SSW,203,6.0,-999.0,62,-99.99,,,-99.99,,2013-10-11 16:22:00,
2013-10-11 11:43:00,73.0,56.0,-100.00,SW,225,7.0,-999.0,55,-99.99,,,-99.99,,2013-10-11 16:43:00,
2013-10-11 11:53:00,74.0,54.0,-100.00,SW,225,6.0,-999.0,50,-99.99,,,-99.99,,2013-10-11 16:53:00,
2013-10-11 12:22:00,76.0,51.0,-100.00,SW,225,6.0,-999.0,42,-99.99,,,-99.99,,2013-10-11 17:22:00,
2013-10-11 12:43:00,77.0,-99.9,-100.00,SSW,203,7.0,-999.0,33,-99.99,,,-99.99,,2013-10-11 17:43:00,
2013-10-11 12:53:00,77.0,-99.9,-100.00,SSW,203,7.0,-999.0,33,-99.99,,,-99.99,,2013-10-11 17:53:00,
2013-10-11 13:02:00,77.0,-99.9,-100.00,SSW,203,7.0,-999.0,33,-99.99,,,-99.99,,2013-10-11 18:02:00,
2013-10-11 13:12:00,77.0,45.0,-100.00,SSW,203,7.0,-999.0,33,-99.99,,,-99.99,,2013-10-11 18:12:00,
2013-10-11 18:22:00,78.0,36.0,-100.00,WSW,248,3.0,-999.0,22,-99.99,,,-99.99,,2013-10-11 23:22:00,
2013-10-11 18:53:00,75.0,37.0,-100.00,WSW,248,3.0,-999.0,25,-99.99,,,-99.99,,2013-10-11 23:53:00,
2013-10-11 19:22:00,70.0,40.0,-100.00,NW,315,3.0,-999.0,33,-99.99,,,-99.99,,2013-10-12 00:22:00,
2013-10-11 19:52:00,66.0,41.0,-100.00,NW,315,3.0,-999.0,40,-99.99,,,-99.99,,2013-10-12 00:52:00,
2013-10-11 20:22:00,64.0,40.0,-100.00,NW,315,4.0,-999.0,42,-99.99,,,-99.99,,2013-10-12 01:22:00,
2013-10-11 20:52:00,60.0,40.0,-100.00,NW,315,3.0,-999.0,47,-99.99,,,-99.99,,2013-10-12 01:52:00,
2013-10-11 21:23:00,59.0,40.0,-100.00,NNW,338,5.0,-999.0,50,-99.99,,,-99.99,,2013-10-12 02:23:00,
2013-10-11 21:52:00,57.0,40.0,-100.00,NNW,338,4.0,-999.0,54,-99.99,,,-99.99,,2013-10-12 02:52:00,
2013-10-11 22:23:00,55.0,40.0,-100.00,NNW,338,4.0,-999.0,56,-99.99,,,-99.99,,2013-10-12 03:23:00,
2013-10-11 22:54:00,56.0,39.0,-100.00,WNW,293,6.0,-999.0,52,-99.99,,,-99.99,,2013-10-12 03:54:00,
2013-10-11 23:24:00,55.0,37.0,-100.00,NNW,338,6.0,-999.0,50,-99.99,,,-99.99,,2013-10-12 04:24:00,
2013-10-11 23:54:00,54.0,37.0,-100.00,NW,315,4.0,-999.0,53,-99.99,,,-99.99,,2013-10-12 04:54:00,